Probability
0 0 0 0 0 0 0 0 0 0 0 0 0 0 0 0 0 0 0 0 23 16 13 16 26 29 29 35 39 39 35 32 55 58 52 58 61 52 58 58 52 52 52
0 0 0 0 0 0 0 0 0 0 0 0 0 0 0 0 0 0 0 0 0 13 23 19 29 26 32 32 42 42 45 45 48 58 65 71 65 61 55 52 52 48 52
0 0 0 0 0 0 0 0 0 0 0 0 0 0 0 0 0 0 0 0 0 0 10 19 29 29 26 32 35 45 45 45 48 61 65 71 68 65 55 52 58 52 55
0 0 0 0 0 0 0 0 0 0 0 0 0 0 0 0 0 0 0 0 0 0 3 13 19 32 39 29 32 35 42 45 45 58 61 65 65 68 55 52 45 45 55
0 0 0 0 0 0 0 0 0 0 0 0 0 0 0 0 0 0 0 0 0 0 3 3 10 13 29 29 26 29 39 35 48 48 58 61 58 61 61 58 42 52 55
0 0 0 0 0 0 0 0 0 0 0 0 0 0 0 0 0 0 0 0 0 0 0 3 3 3 13 19 26 26 32 42 42 48 61 65 58 55 65 58 55 58 45
0 0 0 0 0 0 0 0 0 0 0 0 0 0 0 0 0 0 0 0 0 0 3 0 0 0 3 10 13 26 29 35 48 48 48 52 55 61 58 58 48 45 42
0 0 0 0 0 0 0 0 0 0 0 0 0 0 0 0 0 0 0 0 0 0 0 0 0 0 0 0 3 10 23 23 39 45 48 48 58 48 52 65 48 52 45
0 0 0 0 0 0 0 0 0 0 0 0 0 0 0 0 0 0 0 0 0 0 0 0 0 0 0 0 0 0 6 6 26 23 42 55 48 48 52 55 48 42 48
0 0 0 0 0 0 0 0 0 0 0 0 0 0 0 0 0 0 0 0 0 0 0 0 0 0 0 0 0 0 0 3 10 23 29 45 48 55 52 55 48 42 42
0 0 0 0 0 0 0 0 0 0 0 0 0 0 0 0 0 0 0 0 0 0 0 0 0 0 0 0 0 0 0 3 3 19 29 35 32 45 52 61 52 42 42
0 0 0 0 0 0 0 0 0 0 0 0 0 0 0 0 0 0 0 0 0 0 0 0 0 0 0 0 0 0 0 0 0 3 10 19 26 26 45 42 45 45 48
0 0 0 0 0 0 0 0 0 0 0 0 0 0 0 0 0 0 0 0 0 0 0 0 0 0 0 0 0 0 0 0 0 0 0 0 0 13 26 32 39 42 48
0 0 0 0 0 0 0 0 0 0 0 0 0 0 0 0 0 0 0 0 0 0 0 0 0 0 0 0 0 0 0 0 0 0 0 0 0 0 6 26 32 32 35
0 0 0 0 0 0 0 0 0 0 0 0 0 0 0 0 0 0 0 0 0 0 0 0 0 0 0 0 0 0 0 0 0 0 0 0 0 0 0 3 3 6 19
0 0 0 0 0 0 0 0 0 0 0 0 0 0 0 0 0 0 0 0 0 0 0 0 0 0 0 0 0 0 0 0 0 0 0 0 0 0 0 0 0 3 3
0 0 0 0 0 0 0 0 0 0 0 0 0 0 0 0 0 0 0 0 0 0 0 0 0 0 0 0 0 0 0 0 0 0 0 0 0 0 0 0 0 0 0
0 0 0 0 0 0 0 0 0 0 0 0 0 0 0 0 0 0 0 0 0 0 0 0 0 0 0 0 0 0 0 0 0 0 0 0 0 0 0 0 0 0 0
0 0 0 0 0 0 0 0 0 0 0 0 0 0 0 0 0 0 0 0 0 0 0 0 0 0 0 0 0 0 0 0 0 0 0 0 0 0 0 0 0 0 0
0 0 0 0 0 0 0 0 0 0 0 0 0 0 0 0 0 0 0 0 0 0 0 0 0 0 0 0 0 0 0 0 0 0 0 0 0 0 0 0 0 0 0
0 0 0 0 0 0 0 0 0 0 0 0 0 0 0 0 0 0 0 0 0 0 0 0 0 0 0 0 0 0 0 0 0 0 0 0 0 0 0 0 0 0 0
0 0 0 0 0 0 0 0 0 0 0 0 0 0 0 0 0 0 0 0 0 0 0 0 0 0 0 0 0 0 0 0 0 0 0 0 0 0 0 0 0 0 0
0 0 0 0 0 0 0 0 0 0 0 0 0 0 0 0 0 0 0 0 0 0 0 0 0 0 0 0 0 0 0 0 0 0 0 0 0 0 0 0 0 0 0
0 0 0 0 0 0 0 0 0 0 0 0 0 0 0 0 0 0 0 0 0 0 0 0 0 0 0 0 0 0 0 0 0 0 0 0 0 0 0 0 0 0 0
0 0 0 0 0 0 0 0 0 0 0 0 0 0 0 0 0 0 0 0 0 0 0 0 0 0 0 0 0 0 0 0 0 0 0 0 0 0 0 0 0 0 0
0 0 0 0 0 0 0 0 0 0 0 0 0 0 0 0 0 0 0 0 0 0 0 0 0 0 0 0 0 0 0 0 0 0 0 0 0 0 0 0 0 0 0
Height
5863 5860 5857 5855 5852 5849 5846 5843 5840 5838 5836 5835 5834 5833 5833 5833 5834 5835 5837 5839 5841 5843 5846 5848 5851 5853 5854 5855 5857 5859 5863 5866 5869 5871 5872 5873 5876 5877 5880 5883 5887 5890 5893
5862 5860 5857 5854 5851 5848 5845 5842 5839 5837 5835 5833 5832 5831 5831 5831 5832 5833 5835 5837 5839 5841 5844 5846 5849 5851 5853 5853 5855 5857 5861 5865 5868 5870 5872 5874 5876 5877 5880 5884 5886 5889 5893
5862 5859 5857 5854 5850 5847 5844 5841 5838 5836 5834 5832 5831 5830 5830 5830 5830 5831 5833 5835 5837 5840 5842 5845 5847 5849 5851 5852 5854 5857 5860 5864 5867 5869 5871 5873 5876 5878 5880 5883 5886 5889 5892
5862 5859 5857 5854 5850 5847 5844 5841 5838 5835 5833 5831 5830 5829 5829 5829 5829 5830 5832 5834 5836 5838 5840 5843 5846 5848 5851 5853 5855 5858 5860 5863 5866 5869 5871 5873 5875 5877 5880 5882 5885 5888 5891
5862 5859 5857 5854 5850 5847 5844 5841 5838 5836 5833 5831 5830 5829 5828 5828 5829 5830 5831 5833 5834 5837 5839 5842 5845 5847 5850 5852 5855 5857 5860 5863 5865 5868 5870 5872 5874 5877 5879 5881 5884 5887 5890
5862 5859 5857 5854 5851 5848 5845 5841 5839 5836 5834 5832 5830 5829 5828 5828 5828 5829 5830 5832 5833 5835 5838 5840 5843 5846 5849 5851 5854 5856 5859 5862 5864 5867 5870 5872 5874 5876 5879 5881 5883 5886 5889
5862 5860 5857 5854 5851 5848 5845 5842 5840 5837 5834 5832 5831 5829 5828 5828 5828 5829 5830 5831 5833 5834 5837 5839 5842 5844 5847 5850 5853 5855 5858 5860 5863 5865 5868 5871 5873 5875 5878 5881 5883 5886 5889
5862 5860 5858 5855 5852 5849 5846 5844 5841 5838 5835 5833 5832 5830 5829 5829 5828 5829 5829 5831 5832 5834 5836 5838 5841 5843 5846 5848 5851 5854 5856 5859 5861 5864 5866 5869 5872 5874 5877 5880 5882 5885 5888
5863 5861 5858 5856 5853 5850 5848 5845 5842 5839 5837 5834 5833 5831 5830 5829 5829 5829 5829 5830 5831 5833 5835 5837 5840 5842 5844 5847 5849 5852 5854 5857 5859 5862 5864 5867 5870 5872 5875 5878 5881 5883 5886
5864 5862 5859 5857 5854 5851 5849 5846 5843 5841 5838 5836 5834 5832 5831 5830 5830 5830 5830 5830 5831 5832 5834 5836 5838 5840 5843 5845 5847 5849 5852 5854 5857 5859 5862 5864 5867 5870 5873 5875 5878 5881 5884
5864 5862 5860 5857 5855 5852 5850 5847 5845 5842 5839 5837 5835 5833 5832 5831 5830 5830 5830 5831 5831 5832 5833 5835 5837 5839 5840 5842 5844 5847 5849 5852 5854 5857 5859 5862 5864 5867 5870 5873 5875 5878 5881
5865 5863 5860 5858 5856 5853 5851 5848 5846 5843 5841 5838 5836 5835 5833 5832 5831 5830 5830 5831 5831 5832 5833 5834 5835 5837 5838 5840 5842 5844 5846 5848 5851 5853 5856 5858 5861 5863 5866 5869 5872 5874 5877
5865 5863 5861 5858 5856 5854 5851 5849 5846 5844 5842 5840 5838 5836 5834 5833 5832 5831 5831 5831 5831 5832 5833 5834 5834 5835 5836 5837 5839 5840 5842 5845 5847 5849 5852 5854 5857 5859 5862 5865 5867 5870 5873
5865 5863 5861 5858 5856 5853 5851 5849 5847 5845 5843 5841 5839 5837 5835 5834 5833 5832 5831 5831 5831 5832 5832 5832 5833 5833 5834 5835 5836 5837 5839 5841 5843 5845 5847 5850 5852 5855 5857 5860 5862 5865 5868
5865 5863 5860 5858 5855 5853 5850 5848 5847 5845 5843 5841 5839 5838 5836 5835 5833 5832 5831 5831 5831 5831 5831 5831 5831 5831 5831 5832 5832 5834 5835 5836 5838 5840 5842 5844 5847 5849 5852 5854 5857 5860 5862
5864 5862 5859 5857 5854 5852 5849 5848 5846 5844 5842 5841 5839 5837 5836 5835 5833 5832 5831 5830 5829 5829 5829 5829 5829 5828 5828 5829 5829 5830 5831 5832 5833 5835 5837 5839 5841 5843 5846 5849 5851 5854 5856
5863 5861 5858 5855 5853 5850 5848 5846 5845 5843 5841 5840 5838 5837 5835 5834 5832 5831 5830 5829 5828 5827 5826 5826 5825 5825 5825 5824 5825 5825 5826 5827 5828 5829 5831 5833 5835 5837 5839 5842 5845 5847 5850
5862 5859 5856 5854 5851 5849 5847 5845 5843 5842 5840 5838 5837 5835 5833 5832 5831 5829 5828 5826 5825 5824 5823 5822 5821 5820 5820 5819 5819 5820 5820 5821 5822 5823 5825 5826 5828 5830 5833 5835 5837 5840 5843
5859 5857 5854 5852 5849 5847 5845 5843 5841 5839 5837 5836 5834 5833 5831 5829 5828 5826 5825 5823 5821 5820 5818 5817 5816 5815 5814 5813 5813 5813 5813 5814 5815 5816 5817 5819 5821 5823 5825 5827 5829 5832 5835
5857 5854 5852 5849 5847 5844 5842 5840 5838 5836 5834 5833 5831 5829 5827 5826 5824 5822 5821 5819 5817 5815 5813 5811 5810 5808 5807 5806 5805 5805 5805 5805 5807 5808 5809 5811 5813 5815 5817 5819 5821 5824 5826
5853 5851 5848 5846 5843 5841 5839 5837 5835 5833 5830 5828 5826 5825 5823 5821 5819 5817 5815 5813 5811 5808 5806 5804 5803 5801 5799 5798 5797 5796 5796 5796 5797 5799 5800 5802 5804 5806 5808 5810 5812 5815 5817
5849 5847 5844 5842 5839 5837 5835 5832 5830 5828 5825 5823 5821 5819 5817 5815 5813 5810 5808 5805 5802 5800 5798 5796 5794 5792 5791 5789 5787 5786 5786 5787 5788 5789 5790 5792 5794 5796 5798 5800 5803 5805 5807
5845 5842 5840 5837 5834 5832 5829 5827 5824 5822 5819 5817 5814 5812 5810 5807 5805 5802 5799 5796 5793 5789 5787 5785 5783 5781 5780 5778 5777 5776 5775 5775 5777 5778 5779 5781 5783 5785 5788 5790 5792 5795 5797
5839 5837 5834 5831 5828 5826 5823 5820 5817 5814 5811 5809 5806 5804 5801 5798 5795 5792 5789 5786 5782 5778 5775 5772 5770 5768 5766 5765 5764 5763 5763 5763 5764 5765 5766 5769 5771 5773 5775 5778 5781 5783 5786
5833 5830 5827 5825 5821 5818 5815 5812 5809 5806 5803 5800 5797 5793 5790 5787 5784 5781 5777 5774 5770 5766 5762 5758 5755 5753 5751 5750 5748 5748 5748 5749 5750 5752 5752 5755 5758 5760 5762 5765 5768 5771 5773
5825 5822 5819 5816 5813 5810 5806 5803 5800 5797 5794 5790 5786 5783 5779 5775 5771 5766 5763 5758 5755 5751 5747 5744 5740 5737 5735 5733 5731 5731 5731 5732 5734 5737 5738 5739 5742 5745 5748 5752 5754 5757 5761
Wind_Speed
13 14 14 15 16 16 15 15 14 12 10 9 8 8 7 6 6 8 10 11 12 12 13 13 12 11 12 12 12 13 14 13 12 13 13 13 14 15 17 18 17 17 16
13 14 15 15 16 16 15 15 14 13 11 9 8 7 6 5 5 7 9 11 12 12 13 14 13 12 12 12 12 13 14 15 14 13 13 14 15 16 17 17 17 17 17
13 14 15 16 16 17 16 15 14 13 12 9 7 6 5 4 4 5 7 9 11 12 13 14 13 14 13 13 13 13 14 15 15 14 14 14 14 15 16 18 17 17 17
13 14 15 17 17 17 16 15 14 13 12 10 8 6 4 2 2 4 6 7 9 11 13 14 14 14 14 14 14 14 14 15 15 15 15 15 15 14 16 17 18 17 18
13 14 16 17 17 17 17 15 14 13 12 10 8 7 5 2 1 3 5 6 8 10 12 14 14 14 15 15 15 15 14 15 16 16 16 15 16 16 16 17 18 18 18
14 15 16 16 17 17 17 16 15 14 13 11 9 7 5 3 1 2 4 5 7 9 11 13 14 15 16 16 15 15 14 15 15 17 17 17 16 16 16 17 18 18 17
14 15 16 17 17 17 18 17 16 15 14 12 10 8 6 4 2 1 3 4 6 8 10 12 14 15 16 16 16 16 15 15 15 16 17 17 17 18 17 18 18 18 17
15 15 16 17 17 18 18 18 17 16 15 13 12 10 8 6 3 1 2 3 5 8 10 12 13 15 15 16 17 16 16 16 16 17 18 18 18 19 19 18 19 19 19
15 15 16 16 17 18 18 18 17 17 16 14 13 11 9 7 5 3 0 2 5 7 9 11 13 14 15 15 16 17 17 17 17 19 19 20 20 20 21 21 20 20 20
14 15 15 16 17 18 18 18 17 17 17 15 13 12 10 8 7 4 2 2 4 7 8 10 12 13 15 15 16 17 18 18 18 19 19 20 21 21 21 21 21 21 21
14 15 15 16 16 17 17 18 18 17 17 16 14 12 11 10 8 6 3 1 2 5 8 10 11 13 15 16 16 18 19 19 20 21 21 21 21 22 22 22 23 23 22
13 14 15 16 16 16 17 17 18 17 17 16 15 13 12 11 9 7 5 3 2 4 6 8 10 12 14 16 16 18 20 21 21 21 22 23 23 24 23 24 24 24 24
13 14 15 15 16 17 17 17 17 16 16 16 16 15 14 12 10 8 7 5 4 3 5 7 8 11 13 15 16 17 20 22 23 23 24 24 25 25 25 26 26 26 26
13 14 15 16 16 17 17 17 17 16 16 16 16 15 14 13 11 10 9 7 6 5 6 7 8 10 12 14 15 17 19 21 23 24 25 26 26 27 26 27 27 28 28
13 14 15 16 17 17 17 16 16 16 16 16 16 15 15 14 12 11 10 10 8 8 8 8 9 11 12 14 16 17 19 21 22 24 26 27 28 29 29 29 29 29 30
14 15 15 16 17 17 17 16 16 16 17 17 17 16 16 15 14 13 13 12 11 10 10 11 12 13 13 15 17 18 19 21 22 24 26 28 29 30 31 31 31 31 31
14 15 16 16 17 17 17 17 16 16 16 17 17 17 17 16 16 16 15 14 13 13 12 13 14 15 16 17 18 20 21 22 23 24 25 27 29 31 32 32 33 33 33
15 16 17 17 17 17 17 17 16 16 17 17 17 17 17 17 17 17 17 17 16 16 16 16 17 17 18 19 20 21 23 24 25 26 27 28 29 31 32 32 33 34 35
16 17 17 17 18 18 18 18 17 18 18 18 18 19 19 19 19 19 20 20 20 19 19 19 20 20 21 21 22 23 25 26 27 28 29 30 30 31 33 33 33 34 35
17 17 18 19 19 19 19 19 19 20 20 21 21 20 21 21 22 22 23 23 23 23 23 23 23 23 24 24 25 25 26 27 28 30 31 32 32 32 33 34 35 36 36
19 19 20 20 20 20 20 21 21 23 23 23 23 23 24 25 25 26 27 27 28 28 27 27 27 26 27 27 28 28 28 29 30 31 33 33 34 35 35 35 36 37 37
21 21 21 22 23 23 23 24 25 25 25 26 26 27 28 29 29 30 31 32 32 32 31 31 31 30 30 30 30 30 31 32 32 33 34 35 36 37 37 37 37 38 38
23 23 24 24 25 26 26 28 28 29 29 29 30 31 32 33 34 34 35 36 36 36 36 35 35 35 34 34 34 34 34 34 35 35 37 37 38 38 39 39 39 39 40
25 25 26 27 28 29 30 31 32 32 32 33 33 34 35 37 38 39 40 40 40 40 41 41 40 39 38 38 38 38 38 38 38 38 39 39 40 41 41 41 41 41 41
27 28 29 31 32 33 34 35 35 35 36 37 38 39 40 41 42 44 44 44 44 44 44 45 44 44 43 43 42 42 42 42 41 41 41 42 42 43 43 43 43 43 43
31 32 32 34 35 36 37 37 38 38 39 40 41 43 44 45 47 48 48 48 47 47 48 48 47 47 47 47 47 47 46 46 45 43 44 44 45 46 45 45 45 45 45
Wind_Direction
350 349 349 349 348 347 347 347 345 341 335 327 320 311 299 280 253 234 227 223 219 216 212 207 206 208 205 203 203 202 197 191 190 187 183 182 184 182 179 180 179 178 179
354 355 355 354 353 353 352 351 350 346 343 337 331 322 308 288 256 234 224 221 219 216 210 208 208 208 201 197 199 198 196 194 191 186 184 180 178 178 181 184 183 182 181
358 360 1 359 359 358 358 357 356 355 353 348 342 334 322 299 261 231 219 218 217 214 210 207 207 203 198 194 193 192 192 193 191 189 187 185 183 182 184 184 185 186 185
1 2 4 3 3 2 3 2 1 1 360 360 356 351 345 322 267 222 213 215 213 211 209 206 205 201 198 196 193 192 191 194 194 192 190 187 188 186 182 185 188 188 188
4 5 6 6 7 8 7 6 7 6 6 6 6 5 2 354 269 219 209 209 209 208 206 206 204 204 200 197 196 196 196 196 196 194 190 189 188 185 183 184 185 187 187
8 8 8 9 11 13 13 12 11 11 11 11 10 9 8 14 10 215 204 204 205 205 203 204 204 204 201 198 199 199 199 199 199 196 194 194 193 191 189 187 186 186 187
10 10 10 11 13 15 16 16 15 15 15 16 15 16 17 19 27 182 203 206 204 203 203 203 205 205 204 202 202 203 204 204 204 202 199 198 199 198 194 194 194 194 195
11 11 12 14 15 16 17 17 17 17 16 16 17 17 19 23 24 18 208 208 207 206 207 206 207 207 208 208 209 208 208 209 208 206 205 205 205 203 199 198 199 201 202
13 13 14 16 16 17 17 17 17 18 17 18 19 20 23 23 21 16 310 217 212 209 209 210 209 211 213 215 216 215 214 214 212 211 210 210 210 210 206 205 206 207 207
14 14 15 17 17 18 19 19 19 18 20 20 20 19 18 18 18 13 348 261 223 214 211 212 212 214 217 219 220 219 219 219 216 214 214 213 213 213 210 209 210 210 211
15 15 16 17 17 17 18 19 19 19 21 21 20 19 16 13 11 8 3 326 231 220 219 222 228 225 226 226 226 223 222 222 221 220 219 220 219 217 216 217 216 215 215
14 13 13 15 15 16 17 18 18 20 21 21 21 19 16 13 9 6 0 349 280 237 231 232 239 237 236 236 235 231 226 225 225 224 223 224 223 223 222 222 222 221 221
9 7 7 8 10 11 13 15 16 19 20 20 19 18 16 13 10 7 360 350 328 281 255 250 251 246 244 243 243 239 233 230 229 229 228 227 228 227 227 227 227 226 225
6 5 4 5 5 6 8 10 12 14 15 16 15 15 14 13 10 5 358 345 331 310 286 271 264 262 254 248 247 246 241 238 234 233 232 231 231 231 231 231 230 231 229
2 2 3 2 3 4 5 6 5 6 7 9 10 9 8 7 6 0 354 344 331 319 305 290 281 273 266 257 253 250 247 243 240 237 235 234 234 234 233 233 233 232 233
356 356 356 356 357 358 359 359 359 360 1 2 2 2 360 358 356 352 347 340 331 320 310 300 294 284 277 267 260 258 252 248 245 242 241 240 238 237 236 236 236 234 234
350 350 350 349 349 349 350 350 349 350 352 352 353 353 352 351 349 346 342 338 331 322 313 305 299 293 285 277 268 262 258 253 249 247 246 244 241 240 240 238 237 236 237
341 342 343 343 343 343 343 343 341 340 343 343 343 344 344 343 341 340 337 333 328 321 314 307 302 296 291 284 275 268 264 258 253 250 247 245 244 243 242 241 239 239 240
333 335 336 337 337 337 337 337 335 334 335 335 335 336 337 335 333 332 330 328 324 319 314 309 304 298 292 287 281 274 269 263 257 253 249 247 246 244 243 243 242 242 241
325 327 329 330 331 331 331 330 328 329 329 327 327 328 329 327 326 325 324 322 319 315 311 307 303 299 294 288 283 276 271 265 259 255 252 249 247 247 245 245 244 244 243
319 320 323 325 325 325 325 324 322 322 322 321 321 321 321 320 319 318 318 316 314 312 308 305 301 298 295 290 284 278 273 267 263 259 256 252 249 248 247 247 247 246 245
315 317 318 319 319 319 319 319 318 317 316 315 315 315 315 315 314 314 313 312 310 308 305 302 300 298 294 291 286 280 275 269 265 261 258 254 253 251 249 248 248 248 246
312 312 313 314 314 314 314 315 314 313 311 311 310 310 310 310 311 311 310 310 308 306 304 301 298 296 293 290 285 280 276 271 267 262 260 257 254 252 250 249 248 248 248
307 307 308 309 309 310 310 310 310 310 309 308 307 307 307 307 308 308 308 307 305 304 302 300 298 295 291 288 284 280 276 272 270 265 262 258 255 253 251 250 249 249 249
305 305 305 306 307 307 308 308 307 307 307 306 305 305 306 306 307 306 305 304 302 301 300 299 297 293 290 287 283 279 276 272 270 266 263 260 256 254 252 251 251 250 249
304 304 303 304 305 306 306 306 305 305 305 304 304 304 305 306 306 306 304 302 301 299 299 297 294 291 288 285 282 279 275 272 269 266 262 259 257 255 253 251 251 250 249